Weather History for Zephyrhills, FL

Change the Weather History Date:

Friday, December 27, 2013

  Actual Average (KPCM) Record (KPCM)
Temperature  
Mean Temperature 62 °F -  
Max Temperature 68 °F 72 °F 86 °F (2007)
Min Temperature 55 °F 47 °F 25 °F (1985)
Degree Days  
Heating Degree Days 4    
Growing Degree Days 12 (Base 50)    
Moisture  
Dew Point 61 °F    
Average Humidity 99    
Maximum Humidity 100    
Minimum Humidity 88    
Precipitation  
Precipitation 0.00 in - - ()
Sea Level Pressure  
Sea Level Pressure 30.23 in    
Wind  
Wind Speed 8 mph (NE)    
Max Wind Speed 14 mph    
Max Gust Speed 20 mph    
Visibility 10 miles    
Events Rain    
Averages and records for this station are not official NWS values.
T = Trace of Precipitation, MM = Missing Value Source: NWS Daily Summary

Daily Weather History Graph

Daily Weather History Graph

Search for Another Location

Airport:

Trip Planner

Search our weather history database for the weather conditions in past years. The results will help you decide how hot, cold, wet, or windy it might be!

Date:

Astronomy

Dec. 27, 2013 Rise Set
Actual Time 7:19 AM EST 5:40 PM EST
Civil Twilight 6:53 AM EST 6:06 PM EST
Nautical Twilight 6:23 AM EST 6:35 PM EST
Astronomical Twilight 5:55 AM EST 7:04 PM EST
Moon 2:05 AM EST (12/27) 1:36 PM EST (12/27)
Length of Visible Light 11h 13m
Length of Day
10h 21m
Waning Crescent, 28% of the Moon is Illuminated
Dec 27
Waning Crescent
Jan 1
New
Jan 7
First Quarter
Jan 15
Full
Jan 24
Last Quarter

Hourly Weather History & Observations

Time (EST) Temp. Dew Point Humidity Pressure Visibility Wind Dir Wind Speed Gust Speed Precip Events Conditions
12:15 AM 59.0 °F 59.0 °F 100% 30.22 in 10.0 mi NE 6.9 mph - N/A   Overcast
12:35 AM 59.0 °F 59.0 °F 100% 30.22 in 10.0 mi NE 5.8 mph - N/A   Overcast
12:55 AM 59.0 °F 59.0 °F 100% 30.21 in 10.0 mi NNE 5.8 mph - N/A   Overcast
1:15 AM 57.2 °F 57.2 °F 100% 30.22 in 10.0 mi NNE 6.9 mph - N/A   Overcast
1:35 AM 57.2 °F 57.2 °F 100% 30.21 in 10.0 mi NE 6.9 mph - N/A   Overcast
1:55 AM 57.2 °F 57.2 °F 100% 30.20 in 10.0 mi NNE 6.9 mph - N/A   Overcast
2:15 AM 57.2 °F 57.2 °F 100% 30.20 in 10.0 mi NE 6.9 mph - N/A   Overcast
2:35 AM 57.2 °F 57.2 °F 100% 30.21 in 10.0 mi NNE 5.8 mph - N/A   Overcast
2:55 AM 55.4 °F 55.4 °F 100% 30.20 in 10.0 mi NE 5.8 mph - N/A   Overcast
3:15 AM 55.4 °F 55.4 °F 100% 30.20 in 10.0 mi NE 9.2 mph - N/A   Overcast
3:35 AM 55.4 °F 55.4 °F 100% 30.20 in 10.0 mi NNE 8.1 mph - N/A   Overcast
3:55 AM 55.4 °F 55.4 °F 100% 30.20 in 10.0 mi NE 8.1 mph - N/A   Overcast
4:15 AM 55.4 °F 55.4 °F 100% 30.21 in 10.0 mi NE 5.8 mph - N/A   Overcast
4:35 AM 55.4 °F 55.4 °F 100% 30.20 in 10.0 mi NE 6.9 mph - N/A   Overcast
4:55 AM 57.2 °F 57.2 °F 100% 30.21 in 10.0 mi NE 6.9 mph - N/A   Overcast
5:15 AM 57.2 °F 57.2 °F 100% 30.21 in 10.0 mi NE 6.9 mph - N/A   Overcast
5:35 AM 57.2 °F 57.2 °F 100% 30.21 in 10.0 mi NNE 5.8 mph - N/A   Overcast
5:55 AM 57.2 °F 57.2 °F 100% 30.21 in 10.0 mi NNE 5.8 mph - N/A   Overcast
6:15 AM 57.2 °F 57.2 °F 100% 30.21 in 10.0 mi NNE 6.9 mph - N/A   Overcast
6:35 AM 59.0 °F 59.0 °F 100% 30.22 in 10.0 mi NE 6.9 mph - N/A   Overcast
6:55 AM 59.0 °F 59.0 °F 100% 30.22 in 10.0 mi NE 6.9 mph - N/A   Overcast
7:15 AM 59.0 °F 59.0 °F 100% 30.24 in 10.0 mi NNE 5.8 mph - N/A   Overcast
7:35 AM 59.0 °F 59.0 °F 100% 30.24 in 10.0 mi NNE 6.9 mph - N/A   Overcast
7:55 AM 59.0 °F 59.0 °F 100% 30.25 in 7.0 mi North 6.9 mph - N/A   Overcast
8:15 AM 59.0 °F 59.0 °F 100% 30.25 in 7.0 mi NNE 8.1 mph - N/A   Overcast
8:35 AM 59.0 °F 59.0 °F 100% 30.26 in 7.0 mi NNE 10.4 mph - N/A   Overcast
8:55 AM 59.0 °F 59.0 °F 100% 30.26 in 7.0 mi NNE 10.4 mph - N/A   Overcast
9:15 AM 60.8 °F 60.8 °F 100% 30.26 in 10.0 mi NNE 11.5 mph - N/A   Overcast
9:35 AM 60.8 °F 60.8 °F 100% 30.27 in 10.0 mi NE 10.4 mph - N/A   Overcast
9:55 AM 62.6 °F 62.6 °F 100% 30.28 in 10.0 mi NE 9.2 mph - N/A   Overcast
10:15 AM 62.6 °F 62.6 °F 100% 30.28 in 10.0 mi NE 9.2 mph - N/A   Overcast
10:35 AM 64.4 °F 62.6 °F 94% 30.28 in 10.0 mi NE 9.2 mph 17.3 mph N/A   Mostly Cloudy
10:55 AM 64.4 °F 62.6 °F 94% 30.29 in 10.0 mi NE 9.2 mph - N/A   Mostly Cloudy
11:15 AM 64.4 °F 62.6 °F 94% 30.28 in 10.0 mi ENE 8.1 mph - N/A   Overcast
11:35 AM 66.2 °F 62.6 °F 88% 30.28 in 10.0 mi NE 8.1 mph - N/A   Mostly Cloudy
11:55 AM 64.4 °F 62.6 °F 94% 30.27 in 10.0 mi NE 10.4 mph - N/A   Mostly Cloudy
12:15 PM 64.4 °F 62.6 °F 94% 30.25 in 10.0 mi NE 9.2 mph - N/A   Light Drizzle
12:35 PM 64.4 °F 64.4 °F 100% 30.25 in 10.0 mi NE 6.9 mph - N/A Rain Light Rain
12:55 PM 64.4 °F 64.4 °F 100% 30.24 in 10.0 mi NE 6.9 mph - N/A Rain Light Rain
1:15 PM 64.4 °F 64.4 °F 100% 30.23 in 10.0 mi NE 6.9 mph - N/A   Light Drizzle
1:35 PM 64.4 °F 64.4 °F 100% 30.21 in 10.0 mi NE 6.9 mph - N/A   Scattered Clouds
1:55 PM 66.2 °F 66.2 °F 100% 30.20 in 10.0 mi NNE 8.1 mph - N/A   Clear
2:15 PM 66.2 °F 66.2 °F 100% 30.19 in 10.0 mi NE 11.5 mph - N/A   Clear
2:35 PM 66.2 °F 64.4 °F 94% 30.19 in 10.0 mi NE 10.4 mph - N/A   Clear
2:55 PM 66.2 °F 64.4 °F 94% 30.20 in 10.0 mi NNE 6.9 mph - N/A   Clear
3:15 PM 66.2 °F 64.4 °F 94% 30.19 in 10.0 mi ENE 6.9 mph - N/A   Clear
3:35 PM 66.2 °F 64.4 °F 94% 30.19 in 10.0 mi NE 8.1 mph - N/A   Clear
3:55 PM 68.0 °F 64.4 °F 88% 30.19 in 10.0 mi ENE 12.7 mph - N/A   Clear
4:15 PM 68.0 °F 64.4 °F 88% 30.19 in 10.0 mi NNE 11.5 mph - N/A   Scattered Clouds
4:35 PM 66.2 °F 64.4 °F 94% 30.20 in 10.0 mi NNE 11.5 mph - N/A   Scattered Clouds
4:55 PM 66.2 °F 64.4 °F 94% 30.20 in 10.0 mi NNE 13.8 mph - N/A   Scattered Clouds
5:15 PM 64.4 °F 64.4 °F 100% 30.21 in 10.0 mi NE 11.5 mph - N/A   Scattered Clouds
5:35 PM 64.4 °F 64.4 °F 100% 30.21 in 10.0 mi NE 10.4 mph - N/A   Scattered Clouds
5:55 PM 64.4 °F 64.4 °F 100% 30.22 in 10.0 mi NNE 9.2 mph - N/A   Mostly Cloudy
6:15 PM 64.4 °F 64.4 °F 100% 30.23 in 10.0 mi NNE 8.1 mph - N/A   Overcast
6:35 PM 64.4 °F 64.4 °F 100% 30.24 in 10.0 mi NNE 8.1 mph - N/A   Overcast
6:55 PM 64.4 °F 64.4 °F 100% 30.24 in 10.0 mi NE 9.2 mph - N/A   Overcast
7:15 PM 64.4 °F 64.4 °F 100% 30.24 in 10.0 mi NE 9.2 mph - N/A   Overcast
7:35 PM 64.4 °F 64.4 °F 100% 30.25 in 10.0 mi NE 9.2 mph - N/A   Mostly Cloudy
7:55 PM 64.4 °F 64.4 °F 100% 30.25 in 10.0 mi NE 10.4 mph - N/A   Scattered Clouds
8:15 PM 64.4 °F 64.4 °F 100% 30.25 in 10.0 mi NE 8.1 mph - N/A   Scattered Clouds
8:35 PM 64.4 °F 64.4 °F 100% 30.25 in 10.0 mi NE 12.7 mph 19.6 mph N/A   Mostly Cloudy
8:55 PM 62.6 °F 62.6 °F 100% 30.25 in 10.0 mi NE 10.4 mph 17.3 mph N/A   Overcast
9:15 PM 62.6 °F 62.6 °F 100% 30.25 in 10.0 mi NE 8.1 mph - N/A   Mostly Cloudy
9:35 PM 62.6 °F 62.6 °F 100% 30.26 in 10.0 mi NE 9.2 mph - N/A   Overcast
9:55 PM 62.6 °F 62.6 °F 100% 30.26 in 10.0 mi NE 11.5 mph - N/A   Overcast
10:15 PM 62.6 °F 62.6 °F 100% 30.26 in 10.0 mi NE 9.2 mph - N/A   Overcast
10:35 PM 62.6 °F 62.6 °F 100% 30.26 in 10.0 mi NE 9.2 mph - N/A   Overcast
10:55 PM 62.6 °F 62.6 °F 100% 30.26 in 10.0 mi NE 10.4 mph - N/A   Overcast
11:15 PM 62.6 °F 62.6 °F 100% 30.26 in 10.0 mi NE 8.1 mph - N/A   Overcast
11:35 PM 62.6 °F 62.6 °F 100% 30.25 in 10.0 mi NE 8.1 mph - N/A   Overcast
11:55 PM 62.6 °F 62.6 °F 100% 30.25 in 10.0 mi NE 8.1 mph - N/A   Overcast